Weather History for Phoenix, AZ

Change the Weather History Date:

Wednesday, October 3, 2012

  Actual Average Record
Temperature  
Mean Temperature 88 °F 82 °F  
Max Temperature 102 °F 94 °F 105 °F (1988)
Min Temperature 73 °F 70 °F 49 °F (1907)
Degree Days  
Heating Degree Days 0 0  
Month to date heating degree days 0 0  
Since 1 July heating degree days 0 0  
Cooling Degree Days 23 17  
Month to date cooling degree days 71 52  
Year to date cooling degree days 4562 4221  
Growing Degree Days 38 (Base 50)    
Moisture  
Dew Point 38 °F    
Average Humidity 20    
Maximum Humidity 29    
Minimum Humidity 10    
Precipitation  
Precipitation 0.00 in 0.02 in 1.29 in (1914)
Month to date precipitation 0.00 0.06  
Year to date precipitation 3.36 5.98  
Snow  
Snow 0.00 in - - ()
Month to date snowfall 0.0  
Year to date snowfall 0.0  
Since 1 July snowfall 0.0  
Snow Depth 0.00 in    
Sea Level Pressure  
Sea Level Pressure 29.83 in    
Wind  
Wind Speed 6 mph (SE)    
Max Wind Speed 13 mph    
Max Gust Speed 16 mph    
Visibility 10 miles    
Events      
T = Trace of Precipitation, MM = Missing Value Source: NWS Daily Summary

Daily Weather History Graph

Daily Weather History Graph

Search for Another Location

Airport:

Trip Planner

Search our weather history database for the weather conditions in past years. The results will help you decide how hot, cold, wet, or windy it might be!

Date:

Astronomy

Oct. 03, 2012 Rise Set
Actual Time 6:24 AM MST 6:09 PM MST
Civil Twilight 5:59 AM MST 6:33 PM MST
Nautical Twilight 5:30 AM MST 7:02 PM MST
Astronomical Twilight 5:01 AM MST 7:31 PM MST
Moon 8:16 PM MST (10/3) 9:38 AM MST (10/3)
Length of Visible Light 12h 34m
Length of Day
11h 44m
Waning Gibbous, 88% of the Moon is Illuminated
Oct 3
Waning Gibbous
Oct 8
Last Quarter
Oct 15
New
Oct 21
First Quarter
Oct 29
Full

Hourly Weather History & Observations

Time (MST) Temp. Dew Point Humidity Pressure Visibility Wind Dir Wind Speed Gust Speed Precip Events Conditions
12:51 AM 82.9 °F 37.0 °F 19% 29.76 in 10.0 mi ESE 11.5 mph - N/A   Clear
1:51 AM 79.0 °F 39.9 °F 25% 29.77 in 10.0 mi East 6.9 mph - N/A   Clear
2:51 AM 77.0 °F 37.9 °F 24% 29.78 in 10.0 mi East 6.9 mph - N/A   Clear
3:51 AM 75.9 °F 37.0 °F 24% 29.79 in 10.0 mi East 6.9 mph - N/A   Clear
4:51 AM 75.0 °F 41.0 °F 29% 29.80 in 10.0 mi East 6.9 mph - N/A   Clear
5:51 AM 73.9 °F 37.9 °F 27% 29.82 in 10.0 mi East 8.1 mph - N/A   Partly Cloudy
6:51 AM 73.0 °F 39.0 °F 29% 29.84 in 10.0 mi East 6.9 mph - N/A   Partly Cloudy
7:51 AM 77.0 °F 41.0 °F 28% 29.86 in 10.0 mi East 8.1 mph - N/A   Partly Cloudy
8:51 AM 82.0 °F 42.1 °F 24% 29.88 in 10.0 mi ESE 6.9 mph - N/A   Partly Cloudy
9:51 AM 87.1 °F 42.1 °F 21% 29.88 in 10.0 mi ESE 8.1 mph - N/A   Scattered Clouds
10:51 AM 91.0 °F 41.0 °F 17% 29.88 in 10.0 mi SE 8.1 mph - N/A   Mostly Cloudy
11:51 AM 95.0 °F 39.9 °F 15% 29.87 in 10.0 mi SE 9.2 mph - N/A   Scattered Clouds
12:51 PM 96.1 °F 37.0 °F 13% 29.84 in 10.0 mi WNW 3.5 mph - N/A   Scattered Clouds
1:51 PM 98.1 °F 36.0 °F 11% 29.82 in 10.0 mi Calm Calm - N/A   Partly Cloudy
2:51 PM 99.0 °F 34.0 °F 10% 29.80 in 10.0 mi NW 5.8 mph - N/A   Partly Cloudy
3:51 PM 100.0 °F 33.1 °F 10% 29.80 in 10.0 mi WNW 5.8 mph - N/A   Partly Cloudy
4:51 PM 100.0 °F 33.1 °F 10% 29.79 in 10.0 mi WSW 9.2 mph - N/A   Scattered Clouds
5:51 PM 99.0 °F 33.1 °F 10% 29.80 in 10.0 mi West 5.8 mph - N/A   Scattered Clouds
6:51 PM 95.0 °F 37.0 °F 13% 29.81 in 10.0 mi WSW 4.6 mph - N/A   Scattered Clouds
7:51 PM 91.4 °F 39.2 °F 16% 29.87 in 10.0 mi WSW 3.5 mph - N/A   Partly Cloudy
8:51 PM 89.1 °F 39.9 °F 18% 29.83 in 10.0 mi WSW 5.8 mph - N/A   Partly Cloudy
9:51 PM 89.1 °F 37.9 °F 16% 29.84 in 10.0 mi WSW 4.6 mph - N/A   Partly Cloudy
10:51 PM 89.1 °F 39.9 °F 18% 29.85 in 10.0 mi North 3.5 mph - N/A   Partly Cloudy
11:51 PM 82.9 °F 44.1 °F 25% 29.86 in 10.0 mi East 6.9 mph - N/A   Scattered Clouds